K9SET Weather Reports


Display with metric or nautical units.
time (UTC)temp
F
wind
direction
speed
MPH
gust
MPH
rain 1hr
in
rain 24hr
in
rain mn
in
humidity
%
barometer
mb
20210923083321 49 301 0.0 1.0 0.00 1.35 0.01 96 1015.1
20210923080356 50 336 0.0 3.0 0.00 1.57 0.01 96 1015.2
20210923073413 51 334 1.0 2.0 0.00 1.57 0.01 96 1015.4
20210923070401 52 274 0.0 2.0 0.00 1.68 0.01 96 1015.5
20210923060404 52 301 1.0 3.0 0.01 1.68 0.01 96 1015.7
20210923053338 53 295 0.0 3.0 0.01 1.68 0.01 96 1015.8
20210923050334 54 319 0.0 1.0 0.00 1.67 0.00 95 1016.2
20210923043324 55 326 0.0 3.0 0.01 1.67 0.00 95 1016.3
20210923040338 55 359 2.0 4.0 0.01 1.67 0.00 96 1016.7
20210923030421 55 311 2.0 3.0 0.00 1.67 1.66 96 1016.6
20210923023410 54 319 1.0 4.0 0.00 1.67 1.66 96 1016.7
20210923020412 54 320 0.0 4.0 0.00 1.96 1.66 96 1016.7
20210923013351 54 15 3.0 4.0 0.00 1.96 1.66 96 1016.8
20210923000335 54 28 2.0 4.0 0.02 1.96 1.66 95 1015.9
20210922223344 55 13 4.0 9.0 0.01 1.94 1.64 95 1015.1
20210922220416 54 334 1.0 6.0 0.01 1.94 1.64 95 1015.0
20210922213350 55 342 7.0 10.0 0.00 1.93 1.63 95 1014.9
20210922210346 55 331 5.0 7.0 0.01 1.93 1.63 95 1014.4
20210922203335 55 344 5.0 16.0 0.06 1.93 1.63 95 1014.4
20210922200328 55 333 4.0 12.0 0.11 1.92 1.62 96 1014.4
20210922193341 55 15 3.0 11.0 0.14 1.87 1.57 96 1014.6
20210922190326 56 332 3.0 10.0 0.23 1.81 1.51 96 1014.4
20210922183329 57 346 5.0 11.0 0.27 1.73 1.43 96 1014.1
20210922180326 57 307 3.0 7.0 0.14 1.58 1.28 96 1013.9
20210922173323 58 334 3.0 6.0 0.06 1.46 1.16 97 1013.5
20210922170322 59 352 4.0 11.0 0.12 1.44 1.14 97 1013.5
20210922163327 59 334 3.0 5.0 0.19 1.40 1.10 97 1013.8
20210922160340 59 26 0.0 3.0 0.28 1.32 1.02 97 1014.4
20210922153335 58 312 1.0 5.0 0.18 1.21 0.91 97 1014.2
20210922150329 59 332 1.0 10.0 0.02 1.04 0.74 97 1013.6
20210922143328 59 276 2.0 4.0 0.01 1.03 0.73 97 1013.6
20210922140340 59 187 1.0 9.0 0.01 1.02 0.72 96 1014.9
20210922133332 58 209 4.0 6.0 0.01 1.02 0.72 97 1013.9
20210922130324 59 37 1.0 4.0 0.01 1.01 0.71 97 1012.5
20210922123337 58 353 1.0 5.0 0.04 1.01 0.71 97 1013.7
20210922120321 58 57 1.0 2.0 0.05 1.00 0.70 97 1015.0
20210922113337 58 313 1.0 2.0 0.09 0.97 0.67 97 1014.4
20210922110330 58 355 0.0 4.0 0.07 0.95 0.65 97 1013.9
20210922103322 58 348 2.0 11.0 0.02 0.88 0.58 97 1013.7
20210922100336 59 350 1.0 4.0 0.19 0.88 0.58 97 1013.9
20210922093331 59 294 2.0 10.0 0.24 0.87 0.57 97 1014.6
20210922090323 59 299 2.0 11.0 0.16 0.69 0.39 96 1013.9